Time,TemperatureF,DewpointF,PressureIn,WindDirection,WindDirectionDegrees,WindSpeedMPH,WindSpeedGustMPH,Humidity,HourlyPrecipIn,Conditions,Clouds,dailyrainin,SoftwareType,DateUTC
2013-08-22 00:01:00,70.7,66.6,30.04,SSW,202,0.0,0.0,87,0.00,RMK 75.4/55.0,,0.02,WUHU21623XXSP,2013-08-22 04:01:00,
2013-08-22 00:06:00,70.7,66.6,30.03,SSW,202,0.0,0.0,87,0.00,RMK 75.4/55.0,,0.00,WUHU21623XXSP,2013-08-22 04:06:00,
2013-08-22 00:11:00,70.7,66.6,30.04,SSW,202,0.0,0.0,87,0.00,RMK 75.6/55.0,,0.00,WUHU21623XXSP,2013-08-22 04:11:00,
2013-08-22 00:16:00,70.7,66.6,30.03,SSW,202,0.0,0.0,87,0.00,RMK 75.6/55.0,,0.00,WUHU21623XXSP,2013-08-22 04:16:00,
2013-08-22 00:21:00,70.7,66.6,30.03,SSW,202,0.0,0.0,87,0.00,RMK 75.6/55.0,,0.00,WUHU21623XXSP,2013-08-22 04:21:00,
2013-08-22 00:26:00,70.6,66.5,30.03,SSW,202,0.0,0.0,87,0.00,RMK 75.6/55.0,,0.00,WUHU21623XXSP,2013-08-22 04:26:00,
2013-08-22 00:31:00,70.6,66.5,30.03,SSW,202,0.0,0.0,87,0.00,RMK 75.6/55.0,,0.00,WUHU21623XXSP,2013-08-22 04:31:00,
2013-08-22 00:36:00,70.4,66.4,30.03,SSW,202,0.0,0.0,87,0.00,RMK 75.6/55.0,,0.00,WUHU21623XXSP,2013-08-22 04:36:00,
2013-08-22 00:41:00,70.4,66.4,30.03,South,180,0.0,0.0,87,0.00,RMK 75.6/55.0,,0.00,WUHU21623XXSP,2013-08-22 04:41:00,
2013-08-22 00:46:00,70.4,66.4,30.03,South,180,0.0,0.0,87,0.00,RMK 75.6/55.0,,0.00,WUHU21623XXSP,2013-08-22 04:46:00,
2013-08-22 00:51:00,70.4,66.4,30.03,South,180,0.0,0.0,87,0.00,RMK 75.6/55.0,,0.00,WUHU21623XXSP,2013-08-22 04:51:00,
2013-08-22 00:56:00,70.2,66.2,30.04,South,180,0.0,0.0,87,0.00,RMK 75.6/55.0,,0.00,WUHU21623XXSP,2013-08-22 04:56:00,
2013-08-22 01:01:00,70.2,66.2,30.04,South,180,0.0,0.0,87,0.00,RMK 75.7/55.0,,0.00,WUHU21623XXSP,2013-08-22 05:01:00,
2013-08-22 01:06:00,70.4,66.4,30.04,South,180,0.0,0.0,87,0.00,RMK 75.7/56.0,,0.00,WUHU21623XXSP,2013-08-22 05:06:00,
2013-08-22 01:11:00,70.4,66.4,30.04,South,180,0.0,0.0,87,0.00,RMK 75.7/56.0,,0.00,WUHU21623XXSP,2013-08-22 05:11:00,
2013-08-22 01:16:00,70.4,66.4,30.04,South,180,0.0,0.0,87,0.00,RMK 75.7/56.0,,0.00,WUHU21623XXSP,2013-08-22 05:16:00,
2013-08-22 01:21:00,70.4,66.4,30.04,South,180,0.0,0.0,87,0.00,RMK 75.7/56.0,,0.00,WUHU21623XXSP,2013-08-22 05:21:00,
2013-08-22 01:26:00,70.2,66.2,30.03,South,180,0.0,0.0,87,0.00,RMK 75.7/56.0,,0.00,WUHU21623XXSP,2013-08-22 05:26:00,
2013-08-22 01:31:00,70.4,66.7,30.04,South,180,0.0,0.0,88,0.00,RMK 75.7/56.0,,0.00,WUHU21623XXSP,2013-08-22 05:31:00,
2013-08-22 01:36:00,70.4,66.7,30.03,South,180,0.0,0.0,88,0.00,RMK 75.9/56.0,,0.00,WUHU21623XXSP,2013-08-22 05:36:00,
2013-08-22 01:41:00,70.4,66.7,30.03,South,180,0.0,0.0,88,0.00,RMK 75.9/56.0,,0.00,WUHU21623XXSP,2013-08-22 05:41:00,
2013-08-22 01:46:00,70.4,66.7,30.02,SSW,202,0.0,0.0,88,0.00,RMK 75.9/56.0,,0.00,WUHU21623XXSP,2013-08-22 05:46:00,
2013-08-22 01:51:00,70.4,66.7,30.02,SW,225,0.0,0.0,88,0.00,RMK 75.9/56.0,,0.00,WUHU21623XXSP,2013-08-22 05:51:00,
2013-08-22 01:56:00,70.4,66.4,30.02,SW,225,0.0,0.0,87,0.00,RMK 75.9/56.0,,0.00,WUHU21623XXSP,2013-08-22 05:56:00,
2013-08-22 02:01:00,70.4,66.4,30.02,SW,225,0.0,0.0,87,0.00,RMK 75.9/56.0,,0.00,WUHU21623XXSP,2013-08-22 06:01:00,
2013-08-22 02:06:00,70.4,66.4,30.02,WSW,247,0.0,0.0,87,0.00,RMK 75.9/56.0,,0.00,WUHU21623XXSP,2013-08-22 06:06:00,
2013-08-22 02:11:00,70.4,66.4,30.02,WSW,247,0.0,0.0,87,0.00,RMK 75.9/56.0,,0.00,WUHU21623XXSP,2013-08-22 06:11:00,
2013-08-22 02:16:00,70.6,66.5,30.02,SW,225,0.0,0.0,87,0.00,RMK 75.9/56.0,,0.00,WUHU21623XXSP,2013-08-22 06:16:00,
2013-08-22 02:21:00,70.7,66.6,30.02,SSW,202,0.0,0.0,87,0.00,RMK 75.9/56.0,,0.00,WUHU21623XXSP,2013-08-22 06:21:00,
2013-08-22 02:26:00,70.7,66.6,30.03,NW,315,0.0,0.0,87,0.00,RMK 75.9/56.0,,0.00,WUHU21623XXSP,2013-08-22 06:26:00,
2013-08-22 02:31:00,70.7,66.6,30.03,SSW,202,0.0,0.0,87,0.00,RMK 75.9/56.0,,0.00,WUHU21623XXSP,2013-08-22 06:31:00,
2013-08-22 02:36:00,70.9,66.5,30.04,SW,225,0.0,0.0,86,0.00,RMK 75.9/56.0,,0.00,WUHU21623XXSP,2013-08-22 06:36:00,
2013-08-22 02:41:00,70.9,66.5,30.03,ESE,112,0.0,0.0,86,0.00,RMK 75.9/56.0,,0.00,WUHU21623XXSP,2013-08-22 06:41:00,
2013-08-22 02:46:00,71.1,66.4,30.03,WSW,247,0.0,0.0,85,0.00,RMK 75.9/56.0,,0.00,WUHU21623XXSP,2013-08-22 06:46:00,
2013-08-22 02:51:00,71.3,66.6,30.03,SSE,157,0.0,0.0,85,0.00,RMK 75.9/56.0,,0.00,WUHU21623XXSP,2013-08-22 06:51:00,
2013-08-22 02:56:00,71.3,66.6,30.03,SSW,202,0.0,0.0,85,0.00,RMK 75.9/56.0,,0.00,WUHU21623XXSP,2013-08-22 06:56:00,
2013-08-22 03:01:00,71.3,66.6,30.02,ESE,112,0.0,0.0,85,0.00,RMK 76.1/56.0,,0.00,WUHU21623XXSP,2013-08-22 07:01:00,
2013-08-22 03:06:00,71.3,66.3,30.02,WSW,247,0.0,0.0,84,0.00,RMK 76.1/56.0,,0.00,WUHU21623XXSP,2013-08-22 07:06:00,
2013-08-22 03:11:00,71.3,66.6,30.02,SW,225,0.0,0.0,85,0.00,RMK 76.1/56.0,,0.00,WUHU21623XXSP,2013-08-22 07:11:00,
2013-08-22 03:16:00,71.3,66.3,30.02,SSE,157,0.0,0.0,84,0.00,RMK 76.1/56.0,,0.00,WUHU21623XXSP,2013-08-22 07:16:00,
2013-08-22 03:21:00,71.3,66.3,30.02,SE,135,0.0,0.0,84,0.00,RMK 76.1/56.0,,0.00,WUHU21623XXSP,2013-08-22 07:21:00,
2013-08-22 03:26:00,71.3,66.3,30.01,SSW,202,0.0,0.0,84,0.00,RMK 76.1/57.0,,0.00,WUHU21623XXSP,2013-08-22 07:26:00,
2013-08-22 03:31:00,71.3,66.3,30.01,SW,225,0.0,0.0,84,0.00,RMK 76.1/57.0,,0.00,WUHU21623XXSP,2013-08-22 07:31:00,
2013-08-22 03:36:00,71.1,66.4,30.01,SSW,202,0.0,0.0,85,0.00,RMK 76.1/57.0,,0.00,WUHU21623XXSP,2013-08-22 07:36:00,
2013-08-22 03:41:00,70.9,66.2,30.00,WSW,247,0.0,0.0,85,0.00,RMK 76.1/57.0,,0.00,WUHU21623XXSP,2013-08-22 07:41:00,
2013-08-22 03:46:00,70.9,66.2,30.00,WSW,247,0.0,0.0,85,0.00,RMK 76.1/57.0,,0.00,WUHU21623XXSP,2013-08-22 07:46:00,
2013-08-22 03:51:00,70.9,66.2,29.99,WSW,247,0.0,0.0,85,0.00,RMK 76.1/57.0,,0.00,WUHU21623XXSP,2013-08-22 07:51:00,
2013-08-22 03:56:00,70.9,66.2,29.98,WSW,247,0.0,0.0,85,0.00,RMK 76.1/57.0,,0.00,WUHU21623XXSP,2013-08-22 07:56:00,
2013-08-22 04:01:00,70.9,66.2,29.98,SW,225,0.0,0.0,85,0.00,RMK 76.1/56.0,,0.00,WUHU21623XXSP,2013-08-22 08:01:00,
2013-08-22 04:06:00,70.9,66.2,29.97,SW,225,0.0,0.0,85,0.00,RMK 76.1/56.0,,0.00,WUHU21623XXSP,2013-08-22 08:06:00,
2013-08-22 04:11:00,70.7,66.0,29.97,SSW,202,0.0,0.0,85,0.00,RMK 76.1/57.0,,0.00,WUHU21623XXSP,2013-08-22 08:11:00,
2013-08-22 04:16:00,70.7,66.0,29.96,SSE,157,0.0,0.0,85,0.00,RMK 76.1/57.0,,0.00,WUHU21623XXSP,2013-08-22 08:16:00,
2013-08-22 04:21:00,70.7,66.3,29.96,SSW,202,0.0,0.0,86,0.00,RMK 76.1/57.0,,0.00,WUHU21623XXSP,2013-08-22 08:21:00,
2013-08-22 04:26:00,70.7,66.3,29.96,SSW,202,0.0,0.0,86,0.00,RMK 76.1/57.0,,0.00,WUHU21623XXSP,2013-08-22 08:26:00,
2013-08-22 04:31:00,70.7,66.3,29.97,SW,225,0.0,0.0,86,0.00,RMK 76.1/57.0,,0.00,WUHU21623XXSP,2013-08-22 08:31:00,
2013-08-22 04:36:00,70.7,66.3,29.97,SW,225,0.0,0.0,86,0.00,RMK 76.1/57.0,,0.00,WUHU21623XXSP,2013-08-22 08:36:00,
2013-08-22 04:41:00,70.7,66.3,29.98,North,0,0.0,0.0,86,0.00,RMK 76.1/57.0,,0.00,WUHU21623XXSP,2013-08-22 08:41:00,
2013-08-22 04:46:00,70.7,66.3,29.99,North,0,0.0,0.0,86,0.00,RMK 76.3/57.0,,0.00,WUHU21623XXSP,2013-08-22 08:46:00,
2013-08-22 04:51:00,70.7,66.3,29.98,North,0,0.0,0.0,86,0.00,RMK 76.3/57.0,,0.00,WUHU21623XXSP,2013-08-22 08:51:00,
2013-08-22 04:56:00,70.7,66.3,29.98,WSW,247,0.0,0.0,86,0.00,RMK 76.1/57.0,,0.00,WUHU21623XXSP,2013-08-22 08:56:00,
2013-08-22 05:01:00,70.4,66.4,29.98,West,270,0.0,0.0,87,0.00,RMK 76.3/57.0,,0.00,WUHU21623XXSP,2013-08-22 09:01:00,
2013-08-22 05:06:00,70.4,66.4,29.99,West,270,0.0,0.0,87,0.00,RMK 76.3/58.0,,0.00,WUHU21623XXSP,2013-08-22 09:06:00,
2013-08-22 05:11:00,70.2,66.2,30.00,West,270,0.0,0.0,87,0.00,RMK 76.3/58.0,,0.00,WUHU21623XXSP,2013-08-22 09:11:00,
2013-08-22 05:16:00,70.0,66.0,30.00,NNE,22,0.0,0.0,87,0.00,RMK 76.3/58.0,,0.00,WUHU21623XXSP,2013-08-22 09:16:00,
2013-08-22 05:21:00,70.0,66.0,30.00,NNE,22,0.0,0.0,87,0.00,RMK 76.3/58.0,,0.00,WUHU21623XXSP,2013-08-22 09:21:00,
2013-08-22 05:26:00,70.0,66.0,30.00,WNW,292,0.0,0.0,87,0.00,RMK 76.3/58.0,,0.00,WUHU21623XXSP,2013-08-22 09:26:00,
2013-08-22 05:31:00,70.0,66.0,30.00,WNW,292,0.0,0.0,87,0.00,RMK 76.3/58.0,,0.00,WUHU21623XXSP,2013-08-22 09:31:00,
2013-08-22 05:36:00,69.8,65.8,30.00,WNW,292,0.0,0.0,87,0.00,RMK 76.3/57.0,,0.00,WUHU21623XXSP,2013-08-22 09:36:00,
2013-08-22 05:41:00,69.8,65.8,30.00,WNW,292,0.0,0.0,87,0.00,RMK 76.3/57.0,,0.00,WUHU21623XXSP,2013-08-22 09:41:00,
2013-08-22 05:46:00,69.8,65.8,30.01,WNW,292,0.0,0.0,87,0.00,RMK 76.3/57.0,,0.00,WUHU21623XXSP,2013-08-22 09:46:00,
2013-08-22 05:51:00,69.8,65.8,30.01,WNW,292,0.0,0.0,87,0.00,RMK 76.3/57.0,,0.00,WUHU21623XXSP,2013-08-22 09:51:00,
2013-08-22 05:56:00,69.7,65.7,30.01,WNW,292,0.0,0.0,87,0.00,RMK 76.3/57.0,,0.00,WUHU21623XXSP,2013-08-22 09:56:00,
2013-08-22 06:01:00,69.7,65.7,30.01,WNW,292,0.0,0.0,87,0.00,RMK 76.3/58.0,,0.00,WUHU21623XXSP,2013-08-22 10:01:00,
2013-08-22 06:06:00,69.5,65.5,30.02,WNW,292,0.0,0.0,87,0.00,RMK 76.3/58.0,,0.00,WUHU21623XXSP,2013-08-22 10:06:00,
2013-08-22 06:11:00,69.5,65.5,30.01,WNW,292,0.0,0.0,87,0.00,RMK 76.3/59.0,,0.00,WUHU21623XXSP,2013-08-22 10:11:00,
2013-08-22 06:16:00,69.3,65.3,30.01,WNW,292,0.0,0.0,87,0.00,RMK 76.3/59.0,,0.00,WUHU21623XXSP,2013-08-22 10:16:00,
2013-08-22 06:21:00,69.1,65.1,30.01,WNW,292,0.0,0.0,87,0.00,RMK 76.3/59.0,,0.00,WUHU21623XXSP,2013-08-22 10:21:00,
2013-08-22 06:26:00,68.9,64.9,30.01,WNW,292,0.0,0.0,87,0.00,RMK 76.5/59.0,,0.00,WUHU21623XXSP,2013-08-22 10:26:00,
2013-08-22 06:31:00,68.8,64.8,30.02,WNW,292,0.0,0.0,87,0.00,RMK 76.5/59.0,,0.00,WUHU21623XXSP,2013-08-22 10:31:00,
2013-08-22 06:36:00,68.6,64.6,30.02,WNW,292,0.0,0.0,87,0.00,RMK 76.6/59.0,,0.00,WUHU21623XXSP,2013-08-22 10:36:00,
2013-08-22 06:41:00,68.6,64.9,30.02,WNW,292,0.0,0.0,88,0.00,RMK 76.6/59.0,,0.00,WUHU21623XXSP,2013-08-22 10:41:00,
2013-08-22 06:46:00,68.4,64.7,30.03,WNW,292,0.0,0.0,88,0.00,RMK 76.6/58.0,,0.00,WUHU21623XXSP,2013-08-22 10:46:00,
2013-08-22 06:48:00,68.4,64.7,30.02,WNW,292,0.0,0.0,88,0.00,RMK 76.6/58.0,,0.00,WUHU21623XXSP,2013-08-22 10:48:00,
2013-08-22 06:51:00,68.4,64.7,30.02,NNE,22,0.0,0.0,88,0.00,RMK 76.6/58.0,,0.00,WUHU21623XXSP,2013-08-22 10:51:00,
2013-08-22 06:53:00,68.2,64.5,30.02,NNE,22,0.0,0.0,88,0.00,RMK 76.8/58.0,,0.00,WUHU21623XXSP,2013-08-22 10:53:00,
2013-08-22 06:55:00,68.2,64.5,30.02,North,0,0.0,0.0,88,0.00,RMK 76.8/58.0,,0.00,WUHU21623XXSP,2013-08-22 10:55:00,
2013-08-22 06:57:00,68.2,64.5,30.02,NNE,22,0.0,0.0,88,0.00,RMK 76.8/58.0,,0.00,WUHU21623XXSP,2013-08-22 10:57:00,
2013-08-22 06:59:00,68.2,64.5,30.02,NNE,22,0.0,0.0,88,0.00,RMK 76.6/58.0,,0.00,WUHU21623XXSP,2013-08-22 10:59:00,
2013-08-22 07:01:00,68.2,64.5,30.02,NNE,22,0.0,0.0,88,0.00,RMK 76.6/58.0,,0.00,WUHU21623XXSP,2013-08-22 11:01:00,
2013-08-22 07:04:00,68.2,64.5,30.02,NNE,22,0.0,0.0,88,0.00,RMK 76.8/58.0,,0.00,WUHU21623XXSP,2013-08-22 11:04:00,
2013-08-22 07:05:00,68.4,64.7,30.03,North,0,0.0,0.0,88,0.00,RMK 76.8/58.0,,0.00,WUHU21623XXSP,2013-08-22 11:05:00,
2013-08-22 07:08:00,68.4,64.7,30.03,North,0,0.0,0.0,88,0.00,RMK 76.8/58.0,,0.00,WUHU21623XXSP,2013-08-22 11:08:00,
2013-08-22 07:10:00,68.4,64.7,30.02,North,0,0.0,0.0,88,0.00,RMK 76.8/58.0,,0.00,WUHU21623XXSP,2013-08-22 11:10:00,
2013-08-22 07:12:00,68.4,64.7,30.02,North,0,0.0,0.0,88,0.00,RMK 76.8/58.0,,0.00,WUHU21623XXSP,2013-08-22 11:12:00,
2013-08-22 07:14:00,68.4,64.7,30.02,North,0,0.0,0.0,88,0.00,RMK 76.8/58.0,,0.00,WUHU21623XXSP,2013-08-22 11:14:00,
2013-08-22 07:16:00,68.4,64.7,30.03,North,0,0.0,0.0,88,0.00,RMK 76.8/58.0,,0.00,WUHU21623XXSP,2013-08-22 11:16:00,
2013-08-22 07:18:00,68.4,64.7,30.03,North,0,0.0,0.0,88,0.00,RMK 76.6/58.0,,0.00,WUHU21623XXSP,2013-08-22 11:18:00,
2013-08-22 07:20:00,68.2,64.5,30.03,North,0,0.0,0.0,88,0.00,RMK 76.6/58.0,,0.00,WUHU21623XXSP,2013-08-22 11:20:00,
2013-08-22 07:23:00,68.4,64.7,30.03,North,0,0.0,0.0,88,0.00,RMK 76.6/58.0,,0.00,WUHU21623XXSP,2013-08-22 11:23:00,
2013-08-22 07:25:00,68.2,64.5,30.03,North,0,0.0,0.0,88,0.00,RMK 76.6/58.0,,0.00,WUHU21623XXSP,2013-08-22 11:25:00,
2013-08-22 07:27:00,68.2,64.5,30.03,North,0,0.0,0.0,88,0.00,RMK 76.8/58.0,,0.00,WUHU21623XXSP,2013-08-22 11:27:00,
2013-08-22 07:29:00,68.2,64.5,30.03,North,0,0.0,0.0,88,0.00,RMK 76.6/58.0,,0.00,WUHU21623XXSP,2013-08-22 11:29:00,
2013-08-22 07:31:00,68.4,64.7,30.03,North,0,0.0,0.0,88,0.00,RMK 76.6/58.0,,0.00,WUHU21623XXSP,2013-08-22 11:31:00,
2013-08-22 07:33:00,68.2,64.5,30.03,North,0,0.0,0.0,88,0.00,RMK 76.6/58.0,,0.00,WUHU21623XXSP,2013-08-22 11:33:00,
2013-08-22 07:35:00,68.2,64.5,30.03,North,0,0.0,0.0,88,0.00,RMK 76.6/58.0,,0.00,WUHU21623XXSP,2013-08-22 11:35:00,
2013-08-22 07:38:00,68.2,64.5,30.03,North,0,0.0,0.0,88,0.00,RMK 76.6/58.0,,0.00,WUHU21623XXSP,2013-08-22 11:38:00,
2013-08-22 07:40:00,68.2,64.5,30.03,North,0,0.0,0.0,88,0.00,RMK 76.6/58.0,,0.00,WUHU21623XXSP,2013-08-22 11:40:00,
2013-08-22 07:42:00,68.2,64.5,30.03,North,0,0.0,0.0,88,0.00,RMK 76.6/58.0,,0.00,WUHU21623XXSP,2013-08-22 11:42:00,
2013-08-22 07:44:00,68.2,64.5,30.04,North,0,0.0,0.0,88,0.00,RMK 76.6/58.0,,0.00,WUHU21623XXSP,2013-08-22 11:44:00,
2013-08-22 07:46:00,68.2,64.5,30.04,North,0,0.0,0.0,88,0.00,RMK 76.6/58.0,,0.00,WUHU21623XXSP,2013-08-22 11:46:00,
2013-08-22 07:48:00,68.2,64.5,30.04,North,0,0.0,0.0,88,0.00,RMK 76.6/58.0,,0.00,WUHU21623XXSP,2013-08-22 11:48:00,
2013-08-22 07:51:00,68.2,64.5,30.04,North,0,0.0,0.0,88,0.00,RMK 76.6/58.0,,0.00,WUHU21623XXSP,2013-08-22 11:51:00,
2013-08-22 07:53:00,68.4,64.7,30.04,North,0,0.0,0.0,88,0.00,RMK 76.6/58.0,,0.00,WUHU21623XXSP,2013-08-22 11:53:00,
2013-08-22 07:55:00,68.2,64.2,30.04,North,0,0.0,0.0,87,0.00,RMK 76.6/58.0,,0.00,WUHU21623XXSP,2013-08-22 11:55:00,
2013-08-22 07:57:00,68.4,64.4,30.04,North,0,0.0,0.0,87,0.00,RMK 76.6/58.0,,0.00,WUHU21623XXSP,2013-08-22 11:57:00,
2013-08-22 07:59:00,68.4,64.4,30.05,North,0,0.0,0.0,87,0.00,RMK 76.6/58.0,,0.00,WUHU21623XXSP,2013-08-22 11:59:00,
2013-08-22 08:01:00,68.4,64.4,30.05,North,0,0.0,0.0,87,0.00,RMK 76.6/58.0,,0.00,WUHU21623XXSP,2013-08-22 12:01:00,
2013-08-22 08:03:00,68.4,64.4,30.05,NNW,337,0.0,0.0,87,0.00,RMK 76.6/58.0,,0.00,WUHU21623XXSP,2013-08-22 12:03:00,
2013-08-22 08:05:00,68.4,64.4,30.05,North,0,0.0,0.0,87,0.00,RMK 76.6/58.0,,0.00,WUHU21623XXSP,2013-08-22 12:05:00,
2013-08-22 08:08:00,68.4,64.4,30.05,North,0,0.0,0.0,87,0.00,RMK 76.6/58.0,,0.00,WUHU21623XXSP,2013-08-22 12:08:00,
2013-08-22 08:10:00,68.4,64.4,30.05,NNE,22,0.0,0.0,87,0.00,RMK 76.6/59.0,,0.00,WUHU21623XXSP,2013-08-22 12:10:00,
2013-08-22 08:12:00,68.4,64.4,30.05,North,0,0.0,0.0,87,0.00,RMK 76.6/59.0,,0.00,WUHU21623XXSP,2013-08-22 12:12:00,
2013-08-22 08:14:00,68.4,64.4,30.05,North,0,0.0,0.0,87,0.00,RMK 76.6/59.0,,0.00,WUHU21623XXSP,2013-08-22 12:14:00,
2013-08-22 08:16:00,68.4,64.4,30.05,NNE,22,0.0,0.0,87,0.00,RMK 76.6/59.0,,0.00,WUHU21623XXSP,2013-08-22 12:16:00,
2013-08-22 08:18:00,68.6,64.6,30.05,North,0,0.0,0.0,87,0.00,RMK 76.6/59.0,,0.00,WUHU21623XXSP,2013-08-22 12:18:00,
2013-08-22 08:27:00,68.6,64.6,30.05,North,0,0.0,0.0,87,0.00,RMK 76.6/59.0,,0.00,WUHU21623XXSP,2013-08-22 12:27:00,
2013-08-22 08:32:00,68.9,64.9,30.05,North,0,0.0,0.0,87,0.00,RMK 76.6/59.0,,0.00,WUHU21623XXSP,2013-08-22 12:32:00,
2013-08-22 08:37:00,69.1,65.1,30.05,North,0,0.0,0.0,87,0.00,RMK 76.6/59.0,,0.00,WUHU21623XXSP,2013-08-22 12:37:00,
2013-08-22 08:42:00,69.5,65.1,30.05,North,0,0.0,0.0,86,0.00,RMK 76.6/59.0,,0.00,WUHU21623XXSP,2013-08-22 12:42:00,
2013-08-22 08:47:00,69.7,65.3,30.05,NNW,337,0.0,0.0,86,0.00,RMK 76.5/59.0,,0.00,WUHU21623XXSP,2013-08-22 12:47:00,
2013-08-22 08:52:00,69.8,65.1,30.05,North,0,0.0,0.0,85,0.00,RMK 76.6/59.0,,0.00,WUHU21623XXSP,2013-08-22 12:52:00,
2013-08-22 08:57:00,70.4,65.7,30.05,NE,45,0.0,0.0,85,0.00,RMK 76.6/59.0,,0.00,WUHU21623XXSP,2013-08-22 12:57:00,
2013-08-22 09:00:00,70.6,65.9,30.05,NNE,22,0.0,0.0,85,0.00,RMK 76.6/60.0,,0.00,WUHU21623XXSP,2013-08-22 13:00:00,
2013-08-22 09:05:00,70.9,65.9,30.05,North,0,0.0,0.0,84,0.00,RMK 76.6/60.0,,0.00,WUHU21623XXSP,2013-08-22 13:05:00,
2013-08-22 09:10:00,71.6,66.2,30.05,North,0,0.0,0.0,83,0.00,RMK 76.6/60.0,,0.00,WUHU21623XXSP,2013-08-22 13:10:00,
2013-08-22 09:15:00,72.0,66.6,30.06,North,0,0.0,0.0,83,0.00,RMK 76.6/60.0,,0.00,WUHU21623XXSP,2013-08-22 13:15:00,
2013-08-22 09:20:00,73.1,67.3,30.05,WNW,292,0.0,0.0,82,0.00,RMK 76.6/60.0,,0.00,WUHU21623XXSP,2013-08-22 13:20:00,
2013-08-22 09:25:00,73.6,67.1,30.05,NW,315,0.0,0.0,80,0.00,RMK 76.8/60.0,,0.00,WUHU21623XXSP,2013-08-22 13:25:00,
2013-08-22 09:30:00,74.2,67.7,30.05,NW,315,0.0,0.0,80,0.00,RMK 76.8/60.0,,0.00,WUHU21623XXSP,2013-08-22 13:30:00,
2013-08-22 09:35:00,74.9,67.7,30.05,West,270,0.0,0.0,78,0.00,RMK 76.8/60.0,,0.00,WUHU21623XXSP,2013-08-22 13:35:00,
2013-08-22 09:40:00,75.2,67.6,30.06,West,270,0.0,0.0,77,0.00,RMK 77.0/61.0,,0.00,WUHU21623XXSP,2013-08-22 13:40:00,
2013-08-22 09:45:00,75.4,67.5,30.05,NNW,337,0.0,0.0,76,0.00,RMK 77.0/61.0,,0.00,WUHU21623XXSP,2013-08-22 13:45:00,
2013-08-22 09:50:00,75.8,67.8,30.05,WNW,292,0.0,0.0,76,0.00,RMK 77.0/61.0,,0.00,WUHU21623XXSP,2013-08-22 13:50:00,
2013-08-22 09:55:00,76.0,67.7,30.05,NNW,337,0.0,0.0,75,0.00,RMK 77.0/61.0,,0.00,WUHU21623XXSP,2013-08-22 13:55:00,
2013-08-22 10:00:00,76.1,67.4,30.05,NW,315,0.0,0.0,74,0.00,RMK 77.0/61.0,,0.00,WUHU21623XXSP,2013-08-22 14:00:00,
2013-08-22 10:05:00,76.5,67.8,30.04,North,0,0.0,0.0,74,0.00,RMK 77.0/61.0,,0.00,WUHU21623XXSP,2013-08-22 14:05:00,
2013-08-22 10:10:00,76.5,67.4,30.05,North,0,0.0,0.0,73,0.00,RMK 77.2/61.0,,0.00,WUHU21623XXSP,2013-08-22 14:10:00,
2013-08-22 10:15:00,76.9,68.2,30.05,North,0,0.0,0.0,74,0.00,RMK 77.2/61.0,,0.00,WUHU21623XXSP,2013-08-22 14:15:00,
2013-08-22 10:20:00,77.4,67.9,30.05,WNW,292,0.0,0.0,72,0.00,RMK 77.0/59.0,,0.00,WUHU21623XXSP,2013-08-22 14:20:00,
2013-08-22 10:25:00,77.9,67.9,30.05,NNE,22,0.0,0.0,71,0.00,RMK 77.0/58.0,,0.00,WUHU21623XXSP,2013-08-22 14:25:00,
2013-08-22 10:30:00,78.1,68.1,30.05,NNW,337,0.0,0.0,71,0.00,RMK 77.0/58.0,,0.00,WUHU21623XXSP,2013-08-22 14:30:00,
2013-08-22 10:35:00,78.1,67.7,30.05,NNW,337,0.0,0.0,70,0.00,RMK 77.0/56.0,,0.00,WUHU21623XXSP,2013-08-22 14:35:00,
2013-08-22 10:40:00,78.7,67.9,30.04,West,270,0.0,0.0,69,0.00,RMK 77.0/55.0,,0.00,WUHU21623XXSP,2013-08-22 14:40:00,
2013-08-22 10:45:00,78.8,67.6,30.05,West,270,0.0,0.0,68,0.00,RMK 77.0/55.0,,0.00,WUHU21623XXSP,2013-08-22 14:45:00,
2013-08-22 10:50:00,79.0,67.8,30.05,North,0,0.0,0.0,68,0.00,RMK 77.0/54.0,,0.00,WUHU21623XXSP,2013-08-22 14:50:00,
2013-08-22 10:55:00,79.2,68.0,30.05,WSW,247,0.0,0.0,68,0.00,RMK 76.8/54.0,,0.00,WUHU21623XXSP,2013-08-22 14:55:00,
2013-08-22 11:00:00,79.7,68.0,30.05,WNW,292,0.0,0.0,67,0.00,RMK 77.0/54.0,,0.00,WUHU21623XXSP,2013-08-22 15:00:00,
2013-08-22 11:05:00,79.7,68.4,30.06,North,0,0.0,0.0,68,0.00,RMK 76.8/53.0,,0.00,WUHU21623XXSP,2013-08-22 15:05:00,
2013-08-22 11:10:00,79.6,67.9,30.05,North,0,0.0,0.0,67,0.00,RMK 76.8/53.0,,0.00,WUHU21623XXSP,2013-08-22 15:10:00,
2013-08-22 11:15:00,79.4,67.7,30.05,East,90,0.0,0.0,67,0.00,RMK 76.8/53.0,,0.00,WUHU21623XXSP,2013-08-22 15:15:00,
2013-08-22 11:20:00,79.7,68.4,30.06,North,0,0.0,0.0,68,0.00,RMK 76.8/53.0,,0.00,WUHU21623XXSP,2013-08-22 15:20:00,
2013-08-22 11:25:00,79.7,68.0,30.06,East,90,0.0,0.0,67,0.00,RMK 76.8/53.0,,0.00,WUHU21623XXSP,2013-08-22 15:25:00,
2013-08-22 11:30:00,79.6,67.9,30.06,North,0,0.0,0.0,67,0.00,RMK 76.8/52.0,,0.00,WUHU21623XXSP,2013-08-22 15:30:00,
2013-08-22 11:35:00,79.2,68.0,30.06,WSW,247,0.0,0.0,68,0.00,RMK 76.6/53.0,,0.00,WUHU21623XXSP,2013-08-22 15:35:00,
2013-08-22 11:40:00,79.2,68.4,30.05,North,0,0.0,0.0,69,0.00,RMK 76.6/53.0,,0.00,WUHU21623XXSP,2013-08-22 15:40:00,
2013-08-22 11:45:00,79.4,68.1,30.06,WNW,292,0.0,0.0,68,0.00,RMK 76.6/53.0,,0.00,WUHU21623XXSP,2013-08-22 15:45:00,
2013-08-22 11:50:00,79.4,68.1,30.06,West,270,0.0,0.0,68,0.00,RMK 76.6/53.0,,0.00,WUHU21623XXSP,2013-08-22 15:50:00,
2013-08-22 11:55:00,79.4,68.1,30.06,SW,225,0.0,0.0,68,0.00,RMK 76.6/53.0,,0.00,WUHU21623XXSP,2013-08-22 15:55:00,
2013-08-22 12:00:00,79.4,68.1,30.06,North,0,0.0,0.0,68,0.00,RMK 76.6/53.0,,0.00,WUHU21623XXSP,2013-08-22 16:00:00,
2013-08-22 12:05:00,79.7,68.4,30.06,NNW,337,0.0,0.0,68,0.00,RMK 76.6/53.0,,0.00,WUHU21623XXSP,2013-08-22 16:05:00,
2013-08-22 12:10:00,79.9,69.0,30.05,WNW,292,0.0,0.0,69,0.00,RMK 76.6/53.0,,0.00,WUHU21623XXSP,2013-08-22 16:10:00,
2013-08-22 12:15:00,80.3,69.0,30.06,West,270,0.0,0.0,68,0.00,RMK 76.6/53.0,,0.00,WUHU21623XXSP,2013-08-22 16:15:00,
2013-08-22 12:20:00,80.3,69.0,30.05,North,0,0.0,0.0,68,0.00,RMK 76.6/54.0,,0.00,WUHU21623XXSP,2013-08-22 16:20:00,
2013-08-22 12:25:00,80.5,68.8,30.06,WNW,292,0.0,0.0,67,0.00,RMK 76.6/54.0,,0.00,WUHU21623XXSP,2013-08-22 16:25:00,
2013-08-22 12:30:00,80.6,69.3,30.05,NNE,22,0.0,0.0,68,0.00,RMK 76.8/53.0,,0.00,WUHU21623XXSP,2013-08-22 16:30:00,
2013-08-22 12:35:00,79.9,68.2,30.05,NNW,337,0.0,0.0,67,0.00,RMK 76.8/53.0,,0.00,WUHU21623XXSP,2013-08-22 16:35:00,
2013-08-22 12:40:00,79.9,68.2,30.04,West,270,0.0,0.0,67,0.00,RMK 76.8/53.0,,0.00,WUHU21623XXSP,2013-08-22 16:40:00,
2013-08-22 12:45:00,80.1,68.8,30.04,NNE,22,0.0,0.0,68,0.00,RMK 76.8/53.0,,0.00,WUHU21623XXSP,2013-08-22 16:45:00,
2013-08-22 12:50:00,80.5,69.2,30.04,North,0,0.0,0.0,68,0.00,RMK 76.8/53.0,,0.00,WUHU21623XXSP,2013-08-22 16:50:00,
2013-08-22 12:55:00,80.5,69.2,30.04,North,0,0.0,0.0,68,0.00,RMK 76.8/53.0,,0.00,WUHU21623XXSP,2013-08-22 16:55:00,
2013-08-22 13:00:00,80.6,68.9,30.04,NNW,337,0.0,0.0,67,0.00,RMK 76.8/53.0,,0.00,WUHU21623XXSP,2013-08-22 17:00:00,
2013-08-22 13:05:00,80.6,68.4,30.04,NNW,337,0.0,0.0,66,0.00,RMK 76.8/53.0,,0.00,WUHU21623XXSP,2013-08-22 17:05:00,
2013-08-22 13:10:00,81.0,69.3,30.03,NW,315,0.0,0.0,67,0.00,RMK 76.8/53.0,,0.00,WUHU21623XXSP,2013-08-22 17:10:00,
2013-08-22 13:15:00,81.2,69.4,30.03,NW,315,0.0,0.0,67,0.00,RMK 76.8/53.0,,0.00,WUHU21623XXSP,2013-08-22 17:15:00,
2013-08-22 13:20:00,81.2,69.9,30.03,WSW,247,0.0,0.0,68,0.00,RMK 76.8/53.0,,0.00,WUHU21623XXSP,2013-08-22 17:20:00,
2013-08-22 13:25:00,81.2,69.4,30.04,West,270,0.0,0.0,67,0.00,RMK 76.8/53.0,,0.00,WUHU21623XXSP,2013-08-22 17:25:00,
2013-08-22 13:30:00,80.8,68.6,30.04,NNW,337,0.0,0.0,66,0.00,RMK 77.0/54.0,,0.00,WUHU21623XXSP,2013-08-22 17:30:00,
2013-08-22 13:35:00,80.6,69.3,30.04,North,0,0.0,0.0,68,0.00,RMK 77.0/54.0,,0.00,WUHU21623XXSP,2013-08-22 17:35:00,
2013-08-22 13:40:00,80.5,69.2,30.04,WNW,292,0.0,0.0,68,0.00,RMK 77.0/54.0,,0.00,WUHU21623XXSP,2013-08-22 17:40:00,
2013-08-22 13:45:00,80.3,68.6,30.03,NNW,337,0.0,0.0,67,0.00,RMK 77.0/54.0,,0.00,WUHU21623XXSP,2013-08-22 17:45:00,
2013-08-22 13:50:00,79.9,68.2,30.04,North,0,0.0,0.0,67,0.00,RMK 77.0/54.0,,0.00,WUHU21623XXSP,2013-08-22 17:50:00,
2013-08-22 13:55:00,79.9,68.2,30.04,NNW,337,0.0,0.0,67,0.00,RMK 77.0/53.0,,0.00,WUHU21623XXSP,2013-08-22 17:55:00,
2013-08-22 14:00:00,80.1,68.4,30.04,WNW,292,0.0,0.0,67,0.00,RMK 77.0/54.0,,0.00,WUHU21623XXSP,2013-08-22 18:00:00,
2013-08-22 14:05:00,80.5,69.2,30.04,NW,315,0.0,0.0,68,0.00,RMK 77.0/54.0,,0.00,WUHU21623XXSP,2013-08-22 18:05:00,
2013-08-22 14:10:00,80.8,69.5,30.04,North,0,0.0,0.0,68,0.00,RMK 77.0/53.0,,0.00,WUHU21623XXSP,2013-08-22 18:10:00,
2013-08-22 14:15:00,81.2,69.4,30.04,WSW,247,0.0,0.0,67,0.00,RMK 77.0/54.0,,0.00,WUHU21623XXSP,2013-08-22 18:15:00,
2013-08-22 14:20:00,81.7,69.5,30.04,North,0,0.0,0.0,66,0.00,RMK 77.0/54.0,,0.00,WUHU21623XXSP,2013-08-22 18:20:00,
2013-08-22 14:25:00,81.5,69.3,30.04,NNW,337,0.0,0.0,66,0.00,RMK 77.0/53.0,,0.00,WUHU21623XXSP,2013-08-22 18:25:00,
2013-08-22 14:30:00,81.2,69.0,30.04,North,0,0.0,0.0,66,0.00,RMK 77.0/54.0,,0.00,WUHU21623XXSP,2013-08-22 18:30:00,
2013-08-22 14:35:00,80.8,68.6,30.04,NNE,22,0.0,0.0,66,0.00,RMK 77.0/53.0,,0.00,WUHU21623XXSP,2013-08-22 18:35:00,
2013-08-22 14:40:00,80.6,68.4,30.04,NNE,22,0.0,0.0,66,0.00,RMK 77.0/53.0,,0.00,WUHU21623XXSP,2013-08-22 18:40:00,
2013-08-22 14:45:00,80.5,68.3,30.04,North,0,0.0,0.0,66,0.00,RMK 77.2/53.0,,0.00,WUHU21623XXSP,2013-08-22 18:45:00,
2013-08-22 14:50:00,80.5,68.3,30.04,NNE,22,0.0,0.0,66,0.00,RMK 77.2/53.0,,0.00,WUHU21623XXSP,2013-08-22 18:50:00,
2013-08-22 14:55:00,80.5,69.2,30.04,North,0,0.0,0.0,68,0.00,RMK 77.2/53.0,,0.00,WUHU21623XXSP,2013-08-22 18:55:00,
2013-08-22 15:00:00,80.5,69.2,30.04,WNW,292,0.0,0.0,68,0.00,RMK 77.2/53.0,,0.00,WUHU21623XXSP,2013-08-22 19:00:00,
2013-08-22 15:05:00,80.5,69.2,30.04,NE,45,0.0,0.0,68,0.00,RMK 77.2/53.0,,0.00,WUHU21623XXSP,2013-08-22 19:05:00,
2013-08-22 15:10:00,80.3,69.4,30.04,WNW,292,0.0,0.0,69,0.00,RMK 77.2/53.0,,0.00,WUHU21623XXSP,2013-08-22 19:10:00,
2013-08-22 15:15:00,80.1,69.2,30.04,WSW,247,0.0,0.0,69,0.00,RMK 77.2/53.0,,0.00,WUHU21623XXSP,2013-08-22 19:15:00,
2013-08-22 15:20:00,80.1,69.2,30.04,NW,315,0.0,0.0,69,0.00,RMK 77.2/53.0,,0.00,WUHU21623XXSP,2013-08-22 19:20:00,
2013-08-22 15:25:00,80.1,69.2,30.04,NNW,337,0.0,0.0,69,0.00,RMK 77.2/53.0,,0.00,WUHU21623XXSP,2013-08-22 19:25:00,
2013-08-22 15:30:00,80.3,69.4,30.03,NNE,22,0.0,0.0,69,0.00,RMK 77.2/53.0,,0.00,WUHU21623XXSP,2013-08-22 19:30:00,
2013-08-22 15:35:00,80.5,69.6,30.03,WNW,292,0.0,0.0,69,0.00,RMK 77.2/53.0,,0.00,WUHU21623XXSP,2013-08-22 19:35:00,
2013-08-22 15:40:00,80.5,69.6,30.03,North,0,0.0,0.0,69,0.00,RMK 77.2/53.0,,0.00,WUHU21623XXSP,2013-08-22 19:40:00,
2013-08-22 15:45:00,80.3,69.0,30.02,NNW,337,0.0,0.0,68,0.00,RMK 77.2/54.0,,0.00,WUHU21623XXSP,2013-08-22 19:45:00,
2013-08-22 15:50:00,80.1,68.8,30.02,NNW,337,0.0,0.0,68,0.00,RMK 77.2/53.0,,0.00,WUHU21623XXSP,2013-08-22 19:50:00,
2013-08-22 15:55:00,80.1,69.2,30.02,North,0,0.0,0.0,69,0.00,RMK 77.2/53.0,,0.00,WUHU21623XXSP,2013-08-22 19:55:00,
2013-08-22 16:00:00,80.1,69.2,30.02,WNW,292,0.0,0.0,69,0.00,RMK 77.4/53.0,,0.00,WUHU21623XXSP,2013-08-22 20:00:00,
2013-08-22 16:05:00,79.9,68.6,30.02,North,0,0.0,0.0,68,0.00,RMK 77.4/52.0,,0.00,WUHU21623XXSP,2013-08-22 20:05:00,
2013-08-22 16:10:00,79.9,68.6,30.02,NW,315,0.0,0.0,68,0.00,RMK 77.2/52.0,,0.00,WUHU21623XXSP,2013-08-22 20:10:00,
2013-08-22 16:15:00,79.9,69.0,30.02,NNE,22,0.0,0.0,69,0.00,RMK 77.2/53.0,,0.00,WUHU21623XXSP,2013-08-22 20:15:00,
2013-08-22 16:20:00,79.7,68.9,30.02,North,0,0.0,0.0,69,0.00,RMK 77.2/52.0,,0.00,WUHU21623XXSP,2013-08-22 20:20:00,
2013-08-22 16:25:00,79.4,68.6,30.03,NE,45,0.0,0.0,69,0.00,RMK 77.2/52.0,,0.00,WUHU21623XXSP,2013-08-22 20:25:00,
2013-08-22 16:30:00,79.4,69.0,30.03,NE,45,0.0,0.0,70,0.00,RMK 77.2/52.0,,0.00,WUHU21623XXSP,2013-08-22 20:30:00,
2013-08-22 16:35:00,79.0,69.0,30.03,WNW,292,0.0,0.0,71,0.00,RMK 77.2/52.0,,0.00,WUHU21623XXSP,2013-08-22 20:35:00,
2013-08-22 16:40:00,79.0,69.0,30.03,NNW,337,0.0,0.0,71,0.00,RMK 77.2/52.0,,0.00,WUHU21623XXSP,2013-08-22 20:40:00,
2013-08-22 16:45:00,78.8,68.8,30.02,WNW,292,0.0,0.0,71,0.00,RMK 77.2/52.0,,0.00,WUHU21623XXSP,2013-08-22 20:45:00,
2013-08-22 16:50:00,78.5,68.5,30.03,North,0,0.0,0.0,71,0.00,RMK 77.0/52.0,,0.00,WUHU21623XXSP,2013-08-22 20:50:00,
2013-08-22 16:55:00,78.3,68.3,30.03,ENE,67,0.0,0.0,71,0.00,RMK 77.0/52.0,,0.00,WUHU21623XXSP,2013-08-22 20:55:00,
2013-08-22 17:00:00,78.1,68.1,30.03,North,0,0.0,0.0,71,0.00,RMK 77.0/52.0,,0.00,WUHU21623XXSP,2013-08-22 21:00:00,
2013-08-22 17:05:00,78.1,68.1,30.03,NNW,337,0.0,0.0,71,0.00,RMK 77.0/52.0,,0.00,WUHU21623XXSP,2013-08-22 21:05:00,
2013-08-22 17:10:00,77.9,68.3,30.03,NNW,337,0.0,0.0,72,0.00,RMK 77.0/53.0,,0.00,WUHU21623XXSP,2013-08-22 21:10:00,
2013-08-22 17:15:00,77.8,68.2,30.03,North,0,0.0,0.0,72,0.00,RMK 77.0/53.0,,0.00,WUHU21623XXSP,2013-08-22 21:15:00,
2013-08-22 17:20:00,77.6,68.1,30.03,NE,45,0.0,0.0,72,0.00,RMK 77.0/52.0,,0.00,WUHU21623XXSP,2013-08-22 21:20:00,
2013-08-22 17:25:00,77.6,68.1,30.03,NE,45,0.0,0.0,72,0.00,RMK 77.0/52.0,,0.00,WUHU21623XXSP,2013-08-22 21:25:00,
2013-08-22 17:30:00,77.4,68.3,30.03,NNE,22,0.0,0.0,73,0.00,RMK 77.0/52.0,,0.00,WUHU21623XXSP,2013-08-22 21:30:00,
2013-08-22 17:35:00,77.2,68.1,30.02,NNE,22,0.0,0.0,73,0.00,RMK 77.0/52.0,,0.00,WUHU21623XXSP,2013-08-22 21:35:00,
2013-08-22 17:40:00,77.2,68.4,30.03,NNE,22,0.0,0.0,74,0.00,RMK 77.0/53.0,,0.00,WUHU21623XXSP,2013-08-22 21:40:00,
2013-08-22 17:45:00,77.0,68.3,30.03,NNE,22,0.0,0.0,74,0.00,RMK 77.0/53.0,,0.00,WUHU21623XXSP,2013-08-22 21:45:00,
2013-08-22 17:50:00,77.0,68.3,30.03,NNE,22,0.0,0.0,74,0.00,RMK 77.0/52.0,,0.00,WUHU21623XXSP,2013-08-22 21:50:00,
2013-08-22 17:55:00,77.0,68.6,30.03,NNE,22,0.0,0.0,75,0.00,RMK 77.0/53.0,,0.00,WUHU21623XXSP,2013-08-22 21:55:00,
2013-08-22 18:00:00,76.9,68.5,30.03,NNE,22,0.0,0.0,75,0.00,RMK 77.2/52.0,,0.00,WUHU21623XXSP,2013-08-22 22:00:00,
2013-08-22 18:05:00,76.9,68.5,30.03,North,0,0.0,0.0,75,0.00,RMK 77.0/52.0,,0.00,WUHU21623XXSP,2013-08-22 22:05:00,
2013-08-22 18:10:00,76.9,68.5,30.02,ENE,67,0.0,0.0,75,0.00,RMK 77.2/52.0,,0.00,WUHU21623XXSP,2013-08-22 22:10:00,
2013-08-22 18:15:00,76.9,68.5,30.02,NE,45,0.0,0.0,75,0.00,RMK 77.0/52.0,,0.00,WUHU21623XXSP,2013-08-22 22:15:00,
2013-08-22 18:20:00,76.9,68.5,30.02,NNW,337,0.0,0.0,75,0.00,RMK 77.0/52.0,,0.00,WUHU21623XXSP,2013-08-22 22:20:00,
2013-08-22 18:25:00,76.7,68.3,30.02,NW,315,0.0,0.0,75,0.00,RMK 77.0/52.0,,0.00,WUHU21623XXSP,2013-08-22 22:25:00,
2013-08-22 18:30:00,76.7,68.7,30.02,North,0,0.0,0.0,76,0.00,RMK 77.2/52.0,,0.00,WUHU21623XXSP,2013-08-22 22:30:00,
2013-08-22 18:35:00,76.5,68.1,30.02,NNW,337,0.0,0.0,75,0.00,RMK 77.2/52.0,,0.00,WUHU21623XXSP,2013-08-22 22:35:00,
2013-08-22 18:40:00,76.3,68.0,30.03,WNW,292,0.0,0.0,75,0.00,RMK 77.2/52.0,,0.00,WUHU21623XXSP,2013-08-22 22:40:00,
2013-08-22 18:45:00,76.1,67.8,30.02,WNW,292,0.0,0.0,75,0.00,RMK 77.2/52.0,,0.00,WUHU21623XXSP,2013-08-22 22:45:00,
2013-08-22 18:50:00,76.1,67.8,30.02,NNE,22,0.0,0.0,75,0.00,RMK 77.2/52.0,,0.00,WUHU21623XXSP,2013-08-22 22:50:00,
2013-08-22 18:55:00,76.0,67.7,30.02,NNE,22,0.0,0.0,75,0.00,RMK 77.2/52.0,,0.00,WUHU21623XXSP,2013-08-22 22:55:00,
2013-08-22 19:01:00,76.0,68.0,30.03,NNW,337,0.0,0.0,76,0.00,RMK 77.0/52.0,,0.00,WUHU21623XXSP,2013-08-22 23:01:00,
2013-08-22 19:06:00,75.8,67.8,30.02,NNW,337,0.0,0.0,76,0.00,RMK 77.0/52.0,,0.00,WUHU21623XXSP,2013-08-22 23:06:00,
2013-08-22 19:11:00,75.8,67.8,30.03,NNE,22,0.0,0.0,76,0.00,RMK 77.0/52.0,,0.00,WUHU21623XXSP,2013-08-22 23:11:00,
2013-08-22 19:16:00,75.6,67.6,30.02,NNE,22,0.0,0.0,76,0.00,RMK 77.0/52.0,,0.00,WUHU21623XXSP,2013-08-22 23:16:00,
2013-08-22 19:21:00,75.4,67.5,30.02,NNW,337,0.0,0.0,76,0.00,RMK 77.0/52.0,,0.00,WUHU21623XXSP,2013-08-22 23:21:00,
2013-08-22 19:26:00,75.1,67.5,30.02,NNW,337,0.0,0.0,77,0.00,RMK 76.8/51.0,,0.00,WUHU21623XXSP,2013-08-22 23:26:00,
2013-08-22 19:31:00,74.9,67.3,30.02,NNW,337,0.0,0.0,77,0.00,RMK 76.8/51.0,,0.00,WUHU21623XXSP,2013-08-22 23:31:00,
2013-08-22 19:36:00,74.9,67.7,30.02,NNW,337,0.0,0.0,78,0.00,RMK 76.8/51.0,,0.00,WUHU21623XXSP,2013-08-22 23:36:00,
2013-08-22 19:41:00,74.9,68.1,30.02,NNW,337,0.0,0.0,79,0.00,RMK 76.8/51.0,,0.00,WUHU21623XXSP,2013-08-22 23:41:00,
2013-08-22 19:46:00,74.7,67.9,30.02,North,0,0.0,0.0,79,0.00,RMK 76.6/51.0,,0.00,WUHU21623XXSP,2013-08-22 23:46:00,
2013-08-22 19:51:00,74.5,67.7,30.03,North,0,0.0,0.0,79,0.00,RMK 76.6/51.0,,0.00,WUHU21623XXSP,2013-08-22 23:51:00,
2013-08-22 19:56:00,74.3,67.5,30.02,North,0,0.0,0.0,79,0.00,RMK 76.6/51.0,,0.00,WUHU21623XXSP,2013-08-22 23:56:00,
2013-08-22 20:01:00,74.3,67.8,30.02,North,0,0.0,0.0,80,0.00,RMK 76.6/51.0,,0.00,WUHU21623XXSP,2013-08-23 00:01:00,
2013-08-22 20:06:00,74.2,67.7,30.02,North,0,0.0,0.0,80,0.00,RMK 76.6/51.0,,0.00,WUHU21623XXSP,2013-08-23 00:06:00,
2013-08-22 20:11:00,74.0,67.9,30.03,North,0,0.0,0.0,81,0.00,RMK 76.6/51.0,,0.00,WUHU21623XXSP,2013-08-23 00:11:00,
2013-08-22 20:16:00,74.0,67.9,30.02,North,0,0.0,0.0,81,0.00,RMK 76.6/51.0,,0.00,WUHU21623XXSP,2013-08-23 00:16:00,
2013-08-22 20:21:00,73.8,67.7,30.02,NNE,22,0.0,0.0,81,0.00,RMK 76.6/51.0,,0.00,WUHU21623XXSP,2013-08-23 00:21:00,
2013-08-22 20:26:00,73.6,67.5,30.03,NNE,22,0.0,0.0,81,0.00,RMK 76.5/51.0,,0.00,WUHU21623XXSP,2013-08-23 00:26:00,
2013-08-22 20:31:00,73.4,67.3,30.03,NNE,22,0.0,0.0,81,0.00,RMK 76.5/51.0,,0.00,WUHU21623XXSP,2013-08-23 00:31:00,
2013-08-22 20:36:00,73.4,67.6,30.03,North,0,0.0,0.0,82,0.00,RMK 76.5/51.0,,0.00,WUHU21623XXSP,2013-08-23 00:36:00,
2013-08-22 20:41:00,73.1,67.3,30.03,NNE,22,0.0,0.0,82,0.00,RMK 76.5/51.0,,0.00,WUHU21623XXSP,2013-08-23 00:41:00,
2013-08-22 20:46:00,73.1,67.3,30.03,NNE,22,0.0,0.0,82,0.00,RMK 76.5/51.0,,0.00,WUHU21623XXSP,2013-08-23 00:46:00,
2013-08-22 20:51:00,72.9,67.1,30.03,NNE,22,0.0,0.0,82,0.00,RMK 76.3/51.0,,0.00,WUHU21623XXSP,2013-08-23 00:51:00,
2013-08-22 20:56:00,72.7,67.3,30.02,North,0,0.0,0.0,83,0.00,RMK 76.3/50.0,,0.00,WUHU21623XXSP,2013-08-23 00:56:00,
2013-08-22 21:01:00,72.5,67.1,30.03,North,0,0.0,0.0,83,0.00,RMK 76.3/51.0,,0.00,WUHU21623XXSP,2013-08-23 01:01:00,
2013-08-22 21:06:00,72.5,67.1,30.03,NNE,22,0.0,0.0,83,0.00,RMK 76.3/50.0,,0.00,WUHU21623XXSP,2013-08-23 01:06:00,
2013-08-22 21:11:00,72.5,67.4,30.03,North,0,0.0,0.0,84,0.00,RMK 76.3/50.0,,0.00,WUHU21623XXSP,2013-08-23 01:11:00,
2013-08-22 21:16:00,72.4,67.3,30.03,North,0,0.0,0.0,84,0.00,RMK 76.3/50.0,,0.00,WUHU21623XXSP,2013-08-23 01:16:00,
2013-08-22 21:21:00,72.2,67.1,30.04,North,0,0.0,0.0,84,0.00,RMK 76.1/50.0,,0.00,WUHU21623XXSP,2013-08-23 01:21:00,
2013-08-22 21:26:00,72.2,67.1,30.03,North,0,0.0,0.0,84,0.00,RMK 76.1/50.0,,0.00,WUHU21623XXSP,2013-08-23 01:26:00,
2013-08-22 21:31:00,72.0,66.9,30.03,North,0,0.0,0.0,84,0.00,RMK 76.1/50.0,,0.00,WUHU21623XXSP,2013-08-23 01:31:00,
2013-08-22 21:36:00,71.8,66.7,30.04,North,0,0.0,0.0,84,0.00,RMK 76.1/50.0,,0.00,WUHU21623XXSP,2013-08-23 01:36:00,
2013-08-22 21:41:00,71.6,66.9,30.04,North,0,0.0,0.0,85,0.00,RMK 76.1/50.0,,0.00,WUHU21623XXSP,2013-08-23 01:41:00,
2013-08-22 21:46:00,71.6,66.9,30.04,North,0,0.0,0.0,85,0.00,RMK 76.1/50.0,,0.00,WUHU21623XXSP,2013-08-23 01:46:00,
2013-08-22 21:51:00,71.5,66.8,30.04,North,0,0.0,0.0,85,0.00,RMK 76.1/51.0,,0.00,WUHU21623XXSP,2013-08-23 01:51:00,
2013-08-22 21:56:00,71.3,66.6,30.04,North,0,0.0,0.0,85,0.00,RMK 76.1/52.0,,0.00,WUHU21623XXSP,2013-08-23 01:56:00,
2013-08-22 22:01:00,71.1,66.7,30.04,North,0,0.0,0.0,86,0.00,RMK 76.1/52.0,,0.00,WUHU21623XXSP,2013-08-23 02:01:00,
2013-08-22 22:06:00,70.9,66.5,30.04,North,0,0.0,0.0,86,0.00,RMK 76.1/52.0,,0.00,WUHU21623XXSP,2013-08-23 02:06:00,
2013-08-22 22:11:00,70.7,66.3,30.04,North,0,0.0,0.0,86,0.00,RMK 76.1/53.0,,0.00,WUHU21623XXSP,2013-08-23 02:11:00,
2013-08-22 22:16:00,70.7,66.3,30.04,North,0,0.0,0.0,86,0.00,RMK 76.1/53.0,,0.00,WUHU21623XXSP,2013-08-23 02:16:00,
2013-08-22 22:21:00,70.4,66.4,30.05,North,0,0.0,0.0,87,0.00,RMK 76.1/53.0,,0.00,WUHU21623XXSP,2013-08-23 02:21:00,
2013-08-22 22:26:00,70.2,66.2,30.04,North,0,0.0,0.0,87,0.00,RMK 76.1/54.0,,0.00,WUHU21623XXSP,2013-08-23 02:26:00,
2013-08-22 22:31:00,70.0,66.0,30.04,North,0,0.0,0.0,87,0.00,RMK 76.3/55.0,,0.00,WUHU21623XXSP,2013-08-23 02:31:00,
2013-08-22 22:36:00,70.0,66.0,30.04,North,0,0.0,0.0,87,0.00,RMK 76.3/55.0,,0.00,WUHU21623XXSP,2013-08-23 02:36:00,
2013-08-22 22:41:00,70.0,66.3,30.04,NNE,22,0.0,0.0,88,0.00,RMK 76.3/55.0,,0.00,WUHU21623XXSP,2013-08-23 02:41:00,
2013-08-22 22:46:00,70.0,66.3,30.04,NNE,22,0.0,0.0,88,0.00,RMK 76.3/55.0,,0.00,WUHU21623XXSP,2013-08-23 02:46:00,
2013-08-22 22:51:00,70.0,66.3,30.04,NNE,22,0.0,0.0,88,0.00,RMK 76.3/56.0,,0.00,WUHU21623XXSP,2013-08-23 02:51:00,
2013-08-22 22:56:00,69.8,66.1,30.05,NNE,22,0.0,0.0,88,0.00,RMK 76.3/56.0,,0.00,WUHU21623XXSP,2013-08-23 02:56:00,
2013-08-22 23:01:00,69.8,66.1,30.04,NNE,22,0.0,0.0,88,0.00,RMK 76.3/56.0,,0.00,WUHU21623XXSP,2013-08-23 03:01:00,
2013-08-22 23:06:00,69.7,66.0,30.05,NNE,22,0.0,0.0,88,0.00,RMK 76.3/56.0,,0.00,WUHU21623XXSP,2013-08-23 03:06:00,
2013-08-22 23:11:00,69.7,66.0,30.05,NNE,22,0.0,0.0,88,0.00,RMK 76.3/56.0,,0.00,WUHU21623XXSP,2013-08-23 03:11:00,
2013-08-22 23:16:00,69.7,66.0,30.05,NNE,22,0.0,0.0,88,0.00,RMK 76.3/56.0,,0.00,WUHU21623XXSP,2013-08-23 03:16:00,
2013-08-22 23:21:00,69.7,66.3,30.05,NNE,22,0.0,0.0,89,0.00,RMK 76.5/56.0,,0.00,WUHU21623XXSP,2013-08-23 03:21:00,
2013-08-22 23:26:00,69.5,66.1,30.05,NNE,22,0.0,0.0,89,0.00,RMK 76.5/56.0,,0.00,WUHU21623XXSP,2013-08-23 03:26:00,
2013-08-22 23:31:00,69.5,66.1,30.05,North,0,0.0,0.0,89,0.00,RMK 76.5/56.0,,0.00,WUHU21623XXSP,2013-08-23 03:31:00,
2013-08-22 23:36:00,69.5,66.1,30.05,North,0,0.0,0.0,89,0.00,RMK 76.5/56.0,,0.00,WUHU21623XXSP,2013-08-23 03:36:00,
2013-08-22 23:41:00,69.5,66.1,30.05,North,0,0.0,0.0,89,0.00,RMK 76.5/56.0,,0.00,WUHU21623XXSP,2013-08-23 03:41:00,
2013-08-22 23:46:00,69.5,66.1,30.05,NNE,22,0.0,0.0,89,0.00,RMK 76.5/57.0,,0.00,WUHU21623XXSP,2013-08-23 03:46:00,
2013-08-22 23:51:00,69.3,65.9,30.06,North,0,0.0,0.0,89,0.00,RMK 76.5/57.0,,0.00,WUHU21623XXSP,2013-08-23 03:51:00,
2013-08-22 23:56:00,69.1,65.7,30.06,North,0,0.0,0.0,89,0.00,RMK 76.5/57.0,,0.00,WUHU21623XXSP,2013-08-23 03:56:00,